FENGYUN 1C DEB, 31471

Orbit data source: Space-Track

FENGYUN 1C DEB, 31471 is space debris in SSO originally from a launch on Mon, 10 May 1999 UTC launched from the Taiyaun Space Center, China (TSC). Fengyun 1C debris stems from the Chinese weather satellite Fengyun-1C, which was intentionally destroyed by a Chinese anti-satellite missile in 2007. This event dramatically increased the amount of space debris, with thousands of trackable fragments posing hazards to satellites and human spaceflight. The Fengyun 1C debris cloud has become a focal point in discussions about space sustainability and the need for international regulations to prevent the creation of new debris.

Loading next visibility...
Identifier
31471, 1999-025BVK
Orbit
SSO
Country
Flag of CNCN / PRC
Related business
Manufacturer
Unknown
Mission
Spacecraft
Bus & Motor
Unknown
Mass
Unknown
Launch date (UTC)
1999-05-10 (27 years ago)
Launch vehicle
Unknown
Launch site
Taiyaun Space Center, China (TSC)
Object type
Payload
Rocket body
Debris
Shape & HBR
Unknown shape, 1.1 m
Radar Cross Section
Medium (>0.1 m² and <1 m²)

Expand to show TLE details & history
Last TLE update: 17 hours ago

TLE from 17 hours ago
0 FENGYUN 1C DEB
1 31471U 99025BVK 26256.38374210  .00001979  00000-0  90862-3 0  9994
2 31471  97.9572 116.4542 0143891 274.8427  83.6334 14.16913759678644
Epoch: 2026-09-13T09:12Z
TLE epoch observation values (Epoch: 2026-09-13T09:12:35.317Z)
Latitude
-0°
Longitude
-14.07213°
Altitude
828.709 km
Speed
7.444 km/s
True Right ascension
07h 45m 49s
True Declination
0° 00' 00"
Sunlit
Object was in daylight at epoch
Visualization orbit readout
Latitude
Unknown
Longitude
Unknown
Altitude
Unknown
Speed
Unknown
Apparent Right ascension
Unknown
Apparent Declination
Unknown
Sunlit
N/A
Visualization observer readout
Local Sidereal Time
18:44:20
Azimuth
Unknown
Elevation
Unknown
Doppler factor
Unknown
Orbital elements
Apogee altitude
936.697 km
Perigee altitude
729.176 km
Semi-major axis
7,211.074 km
Eccentricity
0.01439
Inclination
97.9572°
RAAN
116.4542°
Arg. of periapsis
274.8427°
True anomaly
85.27515°
Mean anomaly
83.6334°
Eccentric anomaly
84.45398°
Mean motion
3.5444 °/min
Orbital period
101.57 mins
BSTAR
0.00090862
Loading maneuver chart data...
Computing Atmospheric mass density...
Loading historical data...
Loading historical data...
Loading historical data...
Loading historical data...
Loading historical data...
Loading historical data...
Loading historical data...

Documentation

Showing up to 5 results
|